TimeCDT,TemperatureF,Dew PointF,Humidity,Sea Level PressureIn,VisibilityMPH,Wind Direction,Wind SpeedMPH,Gust SpeedMPH,PrecipitationIn,Events,Conditions,WindDirDegrees,DateUTC
12:51 AM,48.0,39.9,74,30.18,10.0,NNE,12.7,-,N/A,,Overcast,20,2013-10-19 05:51:00
1:22 AM,48.2,39.2,71,30.21,10.0,NNE,10.4,-,N/A,,Overcast,20,2013-10-19 06:22:00
1:51 AM,46.0,39.9,79,30.19,10.0,North,11.5,-,N/A,,Overcast,360,2013-10-19 06:51:00
2:09 AM,46.4,39.2,76,30.21,10.0,North,12.7,-,N/A,,Overcast,360,2013-10-19 07:09:00
2:51 AM,45.0,39.0,80,30.20,10.0,North,9.2,-,N/A,,Overcast,350,2013-10-19 07:51:00
3:21 AM,44.6,39.2,81,30.22,10.0,North,8.1,-,N/A,,Partly Cloudy,350,2013-10-19 08:21:00
3:51 AM,43.0,39.0,86,30.20,10.0,North,9.2,-,N/A,,Clear,350,2013-10-19 08:51:00
4:51 AM,42.1,39.0,89,30.20,10.0,NNW,6.9,-,N/A,,Clear,330,2013-10-19 09:51:00
5:51 AM,41.0,37.9,89,30.22,10.0,NW,6.9,-,N/A,,Clear,320,2013-10-19 10:51:00
6:51 AM,39.9,37.0,89,30.23,10.0,NNW,8.1,-,N/A,,Clear,330,2013-10-19 11:51:00
7:51 AM,39.0,36.0,89,30.26,10.0,WNW,5.8,-,N/A,,Clear,300,2013-10-19 12:51:00
8:51 AM,42.1,37.9,85,30.28,10.0,WNW,6.9,-,N/A,,Clear,300,2013-10-19 13:51:00
9:51 AM,46.0,37.9,73,30.29,10.0,WNW,9.2,-,N/A,,Clear,300,2013-10-19 14:51:00
10:51 AM,50.0,36.0,59,30.27,10.0,North,8.1,-,N/A,,Clear,360,2013-10-19 15:51:00
11:51 AM,53.1,37.0,55,30.26,10.0,NW,4.6,-,N/A,,Clear,320,2013-10-19 16:51:00
12:51 PM,55.9,36.0,47,30.22,10.0,Calm,Calm,-,N/A,,Clear,0,2013-10-19 17:51:00
1:51 PM,59.0,36.0,42,30.19,10.0,Calm,Calm,-,N/A,,Clear,0,2013-10-19 18:51:00
2:51 PM,62.1,36.0,38,30.15,10.0,NW,3.5,-,N/A,,Clear,310,2013-10-19 19:51:00
3:51 PM,63.0,37.0,38,30.13,10.0,ENE,4.6,-,N/A,,Clear,60,2013-10-19 20:51:00
4:51 PM,63.0,37.9,40,30.12,10.0,Calm,Calm,-,N/A,,Clear,0,2013-10-19 21:51:00
5:51 PM,63.0,37.9,40,30.10,10.0,Variable,4.6,-,N/A,,Clear,0,2013-10-19 22:51:00
6:51 PM,60.1,43.0,53,30.09,10.0,East,4.6,-,N/A,,Clear,90,2013-10-19 23:51:00
7:51 PM,54.0,44.1,69,30.10,10.0,East,5.8,-,N/A,,Clear,80,2013-10-20 00:51:00
8:51 PM,52.0,44.1,74,30.10,10.0,SE,4.6,-,N/A,,Clear,130,2013-10-20 01:51:00
9:51 PM,50.0,42.1,74,30.10,10.0,South,5.8,-,N/A,,Clear,170,2013-10-20 02:51:00
10:51 PM,48.9,41.0,74,30.09,10.0,South,6.9,-,N/A,,Clear,170,2013-10-20 03:51:00
11:51 PM,48.0,41.0,77,30.08,10.0,South,3.5,-,N/A,,Clear,170,2013-10-20 04:51:00